BAW4CD EHAM-EGFF

Flight info

Callsign BAW4CD
Flight time N/A
Altitude 36000
Route IDRID L980 LAM L179 ICTAM
Aircraft A319/M-SDE3FGHIRWY/LB1

Departure

Time N/A
Airport Amsterdam Airport Schiphol (EHAM)

Arrival

Time 2026-05-07 13:22
Airport Cardiff International Airport (EGFF)
Time Latitude Longitude Altitude Speed Heading
2026-05-07 12:57 51.57202 -0.65115 33138 ft 454 kts 260°
2026-05-07 12:57 51.56773 -0.70096 32249 ft 458 kts 260°
2026-05-07 12:57 51.56330 -0.75195 31321 ft 463 kts 260°
2026-05-07 12:58 51.55883 -0.80317 30321 ft 466 kts 260°
2026-05-07 12:58 51.55434 -0.85429 29404 ft 467 kts 260°
2026-05-07 12:58 51.54984 -0.90534 28621 ft 463 kts 260°
2026-05-07 12:58 51.54537 -0.95614 28113 ft 454 kts 260°
2026-05-07 12:59 51.54101 -1.00529 27607 ft 447 kts 260°
2026-05-07 12:59 51.53663 -1.05428 27085 ft 440 kts 260°
2026-05-07 12:59 51.53238 -1.10197 26573 ft 434 kts 261°
2026-05-07 12:59 51.53023 -1.15018 26055 ft 429 kts 267°
2026-05-07 13:00 51.52826 -1.19662 25773 ft 419 kts 261°
2026-05-07 13:00 51.52385 -1.24255 25512 ft 417 kts 259°
2026-05-07 13:00 51.51900 -1.28858 25234 ft 415 kts 259°
2026-05-07 13:00 51.51438 -1.33384 24957 ft 413 kts 260°
2026-05-07 13:01 51.50993 -1.37926 24682 ft 411 kts 260°
2026-05-07 13:01 51.50566 -1.42417 24410 ft 410 kts 261°
2026-05-07 13:01 51.50146 -1.46920 24136 ft 408 kts 261°
2026-05-07 13:01 51.49735 -1.51373 23869 ft 406 kts 261°
2026-05-07 13:02 51.49324 -1.55847 23594 ft 404 kts 261°
2026-05-07 13:02 51.48930 -1.60288 23325 ft 403 kts 263°
2026-05-07 13:02 51.48677 -1.64707 23059 ft 401 kts 265°
2026-05-07 13:02 51.48476 -1.69138 22795 ft 399 kts 264°
2026-05-07 13:03 51.48278 -1.73584 22526 ft 398 kts 264°
2026-05-07 13:03 51.48076 -1.77969 22261 ft 396 kts 264°
2026-05-07 13:03 51.47866 -1.82372 21996 ft 394 kts 264°
2026-05-07 13:03 51.47655 -1.86684 21734 ft 393 kts 264°
2026-05-07 13:04 51.47438 -1.91057 21468 ft 391 kts 264°
2026-05-07 13:04 51.47220 -1.95365 21199 ft 390 kts 264°
2026-05-07 13:04 51.46998 -1.99707 20885 ft 389 kts 264°
2026-05-07 13:04 51.46776 -2.03993 20485 ft 387 kts 264°
2026-05-07 13:05 51.46556 -2.08222 20027 ft 384 kts 264°
2026-05-07 13:05 51.46331 -2.12509 19526 ft 382 kts 264°
2026-05-07 13:05 51.46111 -2.16686 19029 ft 380 kts 264°
2026-05-07 13:05 51.45887 -2.20896 18549 ft 376 kts 264°
2026-05-07 13:06 51.45668 -2.25009 18046 ft 374 kts 264°
2026-05-07 13:06 51.45446 -2.29131 17532 ft 372 kts 264°
2026-05-07 13:06 51.45223 -2.33232 17026 ft 370 kts 264°
2026-05-07 13:06 51.45000 -2.37315 16515 ft 368 kts 264°
2026-05-07 13:07 51.44778 -2.41364 16007 ft 366 kts 264°
2026-05-07 13:07 51.44553 -2.45441 15486 ft 364 kts 264°
2026-05-07 13:07 51.44330 -2.49431 14984 ft 363 kts 264°
2026-05-07 13:07 51.44107 -2.53421 14470 ft 361 kts 264°
2026-05-07 13:08 51.43883 -2.57393 13962 ft 360 kts 264°
2026-05-07 13:08 51.43656 -2.61388 13444 ft 358 kts 264°
2026-05-07 13:08 51.43429 -2.65348 12936 ft 357 kts 263°
2026-05-07 13:08 51.43205 -2.69262 12438 ft 355 kts 263°
2026-05-07 13:09 51.42978 -2.73176 11943 ft 354 kts 263°
2026-05-07 13:09 51.42833 -2.77074 11435 ft 352 kts 267°
2026-05-07 13:09 51.42806 -2.80984 10934 ft 351 kts 268°
2026-05-07 13:09 51.42796 -2.84842 10434 ft 349 kts 268°
2026-05-07 13:10 51.42782 -2.88665 9948 ft 333 kts 268°
2026-05-07 13:10 51.42764 -2.92237 9441 ft 316 kts 268°
2026-05-07 13:10 51.42739 -2.95676 8936 ft 300 kts 268°
2026-05-07 13:10 51.42713 -2.98903 8434 ft 288 kts 268°
2026-05-07 13:11 51.42686 -3.02038 7947 ft 277 kts 267°
2026-05-07 13:11 51.42655 -3.05092 7542 ft 277 kts 267°
2026-05-07 13:11 51.42622 -3.08181 7118 ft 277 kts 268°
2026-05-07 13:11 51.42589 -3.11228 6725 ft 272 kts 267°
2026-05-07 13:12 51.42559 -3.14169 6344 ft 261 kts 267°
2026-05-07 13:12 51.42529 -3.17030 5960 ft 250 kts 267°
2026-05-07 13:12 51.42500 -3.19726 5670 ft 237 kts 267°
2026-05-07 13:12 51.42471 -3.22277 5413 ft 227 kts 266°
2026-05-07 13:13 51.42442 -3.24787 5160 ft 223 kts 266°
2026-05-07 13:13 51.42411 -3.27238 4911 ft 221 kts 266°
2026-05-07 13:13 51.42380 -3.29697 4661 ft 221 kts 266°
2026-05-07 13:13 51.42348 -3.32157 4413 ft 222 kts 266°
2026-05-07 13:14 51.42317 -3.34623 4166 ft 222 kts 266°
2026-05-07 13:14 51.42285 -3.37099 3918 ft 222 kts 266°
2026-05-07 13:14 51.42252 -3.39556 3673 ft 223 kts 266°
2026-05-07 13:14 51.42220 -3.42018 3470 ft 221 kts 266°
2026-05-07 13:15 51.42187 -3.44472 3275 ft 219 kts 266°
2026-05-07 13:15 51.42153 -3.46887 3141 ft 214 kts 266°
2026-05-07 13:15 51.42121 -3.49226 3013 ft 209 kts 266°
2026-05-07 13:15 51.42089 -3.51510 2884 ft 204 kts 266°
2026-05-07 13:16 51.42057 -3.53756 2754 ft 199 kts 266°
2026-05-07 13:16 51.42025 -3.55929 2626 ft 194 kts 266°
2026-05-07 13:16 51.42111 -3.58079 2483 ft 192 kts 288°
2026-05-07 13:16 51.42849 -3.59806 2510 ft 193 kts 320°
2026-05-07 13:17 51.44065 -3.60661 2520 ft 195 kts 352°
2026-05-07 13:17 51.45401 -3.60365 2492 ft 194 kts 24°
2026-05-07 13:17 51.46458 -3.59124 2418 ft 185 kts 59°
2026-05-07 13:17 51.46793 -3.57276 2251 ft 171 kts 97°
2026-05-07 13:18 51.46440 -3.55553 2186 ft 159 kts 120°
2026-05-07 13:18 51.45916 -3.53992 2179 ft 158 kts 121°
2026-05-07 13:18 51.45403 -3.52453 2182 ft 157 kts 121°
2026-05-07 13:18 51.44913 -3.50940 2153 ft 147 kts 120°
2026-05-07 13:19 51.44456 -3.49511 2036 ft 144 kts 120°
2026-05-07 13:19 51.44001 -3.48083 1883 ft 143 kts 120°
2026-05-07 13:19 51.43555 -3.46678 1710 ft 142 kts 120°
2026-05-07 13:19 51.43112 -3.45279 1531 ft 135 kts 120°
2026-05-07 13:20 51.42706 -3.43987 1342 ft 128 kts 120°
2026-05-07 13:20 51.42305 -3.42716 1178 ft 127 kts 120°
2026-05-07 13:20 51.41906 -3.41462 1023 ft 127 kts 119°
2026-05-07 13:20 51.41507 -3.40198 855 ft 127 kts 119°
2026-05-07 13:21 51.41113 -3.38938 677 ft 126 kts 118°
2026-05-07 13:21 51.40737 -3.37684 523 ft 126 kts 116°
2026-05-07 13:21 51.40344 -3.36425 371 ft 125 kts 118°
2026-05-07 13:21 51.39940 -3.35212 238 ft 123 kts 118°
2026-05-07 13:22 51.39641 -3.34263 228 ft 54 kts 114°
2026-05-07 13:22 51.39599 -3.33989 228 ft 21 kts 75°
2026-05-07 13:22 51.39638 -3.33819 228 ft 13 kts 35°
2026-05-07 13:22 51.39699 -3.33873 228 ft 10 kts 297°
2026-05-07 13:23 51.39729 -3.33968 228 ft 8 kts 298°
2026-05-07 13:23 51.39777 -3.34002 228 ft 6 kts 37°
2026-05-07 13:23 51.39769 -3.33939 228 ft 7 kts 119°
2026-05-07 13:23 51.39762 -3.33878 228 ft 6 kts 91°
2026-05-07 13:24 51.39765 -3.33836 228 ft 0 kts 81°